FENGYUN 1C DEB

Satellite information

Favourite Embed

Satellite Type and Status

DEBRISIN ORBIT

Key statistics

Satellite FENGYUN 1C DEB at a glance.

Uptime

9495

Days in orbit

Revolutions

≈ 14.2

Per day

Orbit

SSO

Sun Synchronous Orbit

Inclination

98.6

Latest

Satellite identification and parameters

Extended collection of information and parameters for FENGYUN 1C DEB.

Object identification

Identified? True

Debris? True

Object name: FENGYUN 1C DEB

International designator: 1999-025EHF

Object number (NORAD): 37437

Object ID (CCSDS): 37437

Country: PEOPLES REPUBLIC OF CHINA (PRC)

Current information (Y/N): Y

RCS size: SMALL

Orbital parameters

Period: 101.529 minutes

Inclination: 98.5747 deg

SMA: 7209.194 km

Apoapsis: 912.116 km

Periapsis: 750.003 km

RAAN: 121.8787 deg

Eccentricy: 0.0112435

Argument of periapsis: 335.5334 deg

Mean anomaly: 204.8247 deg

Mean motion: 14.18314906 rev/day

Mean motion (dot): 0.00002086 rev/day2

B* drag term: 0.00097065 1/REarth

Two-line elements (TLE)

Creation date: May 3, 2025, 2:26 a.m.

Reference frame: TEME

Reference center: EARTH

Epoch: May 2, 2025, 5:56 p.m. UTC

TLE line 0: 0 FENGYUN 1C DEB

TLE line 1: 1 37437U 99025EHF 25122.74759208 .00002086 00000-0 97065-3 0 9999

TLE line 2: 2 37437 98.5747 121.8787 0112435 335.5334 204.8247 14.18314906608156

Live tracking on map

Real-time ground track for satellite FENGYUN 1C DEB.

In-orbit conjunctions

A list of the most updated potential collisions computed for object FENGYUN 1C DEB.

Target Orbit TCA Probability of collision Miss distance Type
COSMOS 1275 DEB LEO 2025-04-30 02:52:50 0.0002250335 75.0 (m) DEBRIS
CZ-6A DEB LEO 2024-11-27 19:01:25 0.0001333456 260.0 (m) DEBRIS
METEOR 2-17 DEB LEO 2024-09-24 07:50:14 0.000166483 543.0 (m) DEBRIS

Associated space launch

Chinese polar orbiting meteorological satellite

FENGYUN 1C DEB was lifted into orbit during the mission ‘Long March 4B | Feng Yun 1C’, on board a Long March 4B space rocket.

The launch took place on May 10, 1999, 1:33 a.m. from Launch Complex 7.

For more information about the launch, click the button.

Launch to space Long March 4B | Feng Yun 1C
Long March 4B | Feng Yun 1C

Agency: N/A

Status: Launch Successful

Launch date: May 10, 1999, 1:33 a.m. UTC

Rocket: Long March 4B

Launch pad: Launch Complex 7

Location: Taiyuan Satellite Launch Center, People's Republic of China

...

Latest news about this satellite

There are no fresh news available about this satellite. Check back as we update our databases every day.


Newsletter sign-up

Weekly statistics, charts and insights to help you stay on top of the space industry.